Погода в Могойто

Россия / Республика Бурятия     54°22′53″N   110°27′32″E
темп.,
°C
ветер,
м/с
пор.,
м/с
влажн.,
%
обл.,
%
осадки,
мм/ч
давл.,
гПа
погр.,
м
13 апреля, вт
вт1323:00−8сз22613 0.0 102631
02:00−9сз21654 0.0 102620
05:00−10ссз11715 0.0 102516
08:00−6юв11585 0.0 1023414
11:00−1ю234369 0.0 10181189
14:00+2ююз3438100 0.0 10141515
17:00+2зюз3437100 0.0 10111352
20:00−2зсз2363100 0.1 1011101
14 апреля, ср
ср1423:00−3зюз237682 0.1 1010110
02:00−5зсз22854 0.3 101128
05:00−6сз228016 0.0 101328
08:00−1зсз244710 0.1 1013756
11:00+1сз352828 0.0 10122084
14:00+2зсз452750 0.0 10122385
17:00+1з362856 0.0 10122089
20:00−3зсз336097 0.0 101372
15 апреля, чт
чт1523:00−5зсз236777 0.0 101366
02:00−7з227622 0.0 101222
05:00−7з228090 0.2 101289
08:00−4ююз2258100 0.2 1011536
11:000ююз2335100 0.0 10091995
14:00+2з242487 0.1 10082642
17:00+1зсз4528100 0.1 10092053
20:00−4сз4559100 0.1 1014129
16 апреля, пт
пт1623:00−6сз336468 0.0 101770
02:00−8сз32691 0.0 101940
05:00−9сз217134 0.0 102120
08:00−4ююз225320 0.0 1022534
11:000юз343347 0.0 10191688
14:00+2з452899 0.0 10171596
17:000зсз453994 0.0 1017887
20:00−4зсз336294 0.0 101875
17 апреля, сб
сб1723:00−4з2272100 0.0 101851
02:00−4юз238088 0.1 101792
05:00−3ююз1291100 0.3 1016107
08:00−1ююз237985 0.7 1015374
11:00+7ююз4105127 0.1 10101404
14:00+9з494322 0.1 10081621
17:00+9з474418 0.0 10071384
20:00+3зсз326872 0.0 100938